Location: Montr�al
(45.5000°N, 73.5830°W)
Time: 16:16:17
(UTC-04:00)

ISS - Visible Passes

Search period start: 30 September 2016 00:00
Search period end: 10 October 2016 00:00
Orbit: 400 x 410 km, 51.6° (Epoch: 01 October)

Date Brightness Start Highest point End Pass type
(mag) Time Alt. Az. Time Alt. Az. Time Alt. Az.
30 Sep -2.6 20:35:13 10° WSW 20:37:49 52° W 20:37:49 52° W visible
01 Oct -3.4 19:43:08 10° SW 19:46:22 66° SSE 19:48:04 25° ENE visible
01 Oct -0.2 21:20:03 10° W 21:20:46 15° WNW 21:20:46 15° WNW visible
02 Oct -2.4 20:27:40 10° W 20:30:48 43° NNW 20:30:53 43° NNW visible
03 Oct -3.0 19:35:21 10° WSW 19:38:35 63° NNW 19:40:55 17° NE visible
03 Oct -0.3 21:12:37 10° WNW 21:13:34 16° NW 21:13:34 16° NW visible
04 Oct -1.9 20:20:12 10° WNW 20:23:09 31° NNW 20:23:30 30° N visible
05 Oct -2.2 19:27:46 10° W 19:30:51 38° NNW 19:33:23 14° NE visible
05 Oct -0.4 21:05:02 10° WNW 21:06:02 16° NW 21:06:02 16° NW visible
06 Oct -1.7 20:12:41 10° WNW 20:15:32 27° N 20:15:51 26° N visible
07 Oct -1.8 19:20:15 10° WNW 19:23:09 29° N 19:25:39 13° NE visible
07 Oct -0.5 20:57:16 10° NW 20:58:18 17° NW 20:58:18 17° NW visible
08 Oct -1.9 20:05:00 10° NW 20:07:51 27° N 20:08:04 27° NNE visible
09 Oct -1.7 19:12:38 10° WNW 19:15:27 26° N 19:17:50 13° NE visible
09 Oct -0.6 20:49:20 10° NW 20:50:29 19° NW 20:50:29 19° NW visible
